AUA591 LOWW-LIBD

Flight info

Callsign AUA591
Flight time N/A
Altitude 37000
Route STEIN DCT NOHAT DCT KOPRY DCT DIXUM DCT ORAKA DCT AIOSA DCT BANAV
Aircraft A320/M-SDE3FGHIRWY/LB1

Departure

Time 2026-05-05 15:54
Airport Vienna International Airport (LOWW)

Arrival

Time N/A
Airport Bari Karol Wojtyła International Airport (LIBD)
Time Latitude Longitude Altitude Speed Heading
2026-05-05 15:28 48.11691 16.56845 620 ft 0 kts 26°
2026-05-05 15:46 48.11690 16.56844 610 ft 1 kts 26°
2026-05-05 15:46 48.11668 16.56828 626 ft 4 kts 27°
2026-05-05 15:47 48.11644 16.56809 624 ft 4 kts 36°
2026-05-05 15:47 48.11628 16.56783 626 ft 4 kts 83°
2026-05-05 15:47 48.11628 16.56769 626 ft 0 kts 116°
2026-05-05 15:49 48.11627 16.56771 626 ft 1 kts 116°
2026-05-05 15:49 48.11616 16.56805 616 ft 6 kts 116°
2026-05-05 15:49 48.11590 16.56885 610 ft 11 kts 116°
2026-05-05 15:50 48.11551 16.57005 616 ft 15 kts 116°
2026-05-05 15:50 48.11502 16.57151 614 ft 16 kts 116°
2026-05-05 15:50 48.11453 16.57305 623 ft 15 kts 116°
2026-05-05 15:50 48.11440 16.57415 610 ft 11 kts 63°
2026-05-05 15:51 48.11506 16.57474 619 ft 14 kts 30°
2026-05-05 15:51 48.11600 16.57546 615 ft 15 kts 15°
2026-05-05 15:51 48.11701 16.57517 615 ft 15 kts 344°
2026-05-05 15:51 48.11799 16.57475 610 ft 14 kts 344°
2026-05-05 15:52 48.11896 16.57434 618 ft 15 kts 344°
2026-05-05 15:52 48.11996 16.57417 610 ft 15 kts 32°
2026-05-05 15:52 48.12002 16.57555 618 ft 14 kts 106°
2026-05-05 15:52 48.11975 16.57705 621 ft 16 kts 105°
2026-05-05 15:53 48.11917 16.57840 613 ft 16 kts 151°
2026-05-05 15:53 48.11881 16.57859 610 ft 0 kts 165°
2026-05-05 15:53 48.11873 16.57862 620 ft 6 kts 165°
2026-05-05 15:53 48.11644 16.57958 613 ft 68 kts 164°
2026-05-05 15:54 48.10986 16.58237 616 ft 126 kts 164°
2026-05-05 15:54 48.10023 16.58648 880 ft 148 kts 163°
2026-05-05 15:54 48.09047 16.59065 1635 ft 146 kts 166°
2026-05-05 15:54 48.08035 16.59504 2125 ft 161 kts 167°
2026-05-05 15:55 48.06889 16.59995 2491 ft 182 kts 168°
2026-05-05 15:55 48.05571 16.60543 2788 ft 211 kts 168°
2026-05-05 15:55 48.04100 16.61151 3333 ft 230 kts 168°
2026-05-05 15:55 48.02506 16.61818 4057 ft 242 kts 168°
2026-05-05 15:56 48.00860 16.62514 4903 ft 249 kts 168°
2026-05-05 15:56 47.99187 16.63216 5836 ft 250 kts 171°
2026-05-05 15:56 47.97461 16.63395 6691 ft 250 kts 185°
2026-05-05 15:56 47.95714 16.63304 7519 ft 255 kts 185°
2026-05-05 15:57 47.93919 16.63182 8342 ft 261 kts 185°
2026-05-05 15:57 47.92077 16.63051 9098 ft 269 kts 185°
2026-05-05 15:57 47.90185 16.62921 9844 ft 276 kts 185°
2026-05-05 15:57 47.88234 16.62791 10401 ft 291 kts 185°
2026-05-05 15:58 47.86136 16.62646 10777 ft 310 kts 185°
2026-05-05 15:58 47.83934 16.62499 11306 ft 321 kts 184°
2026-05-05 15:58 47.81693 16.62361 12127 ft 322 kts 186°
2026-05-05 15:58 47.79443 16.62225 12935 ft 326 kts 186°
2026-05-05 15:59 47.77150 16.62086 13572 ft 333 kts 184°
2026-05-05 15:59 47.74798 16.61946 14123 ft 341 kts 186°
2026-05-05 15:59 47.72427 16.61801 14831 ft 344 kts 184°